ALANSN-2 Weather Reports


time (UTC)temp
C
wind
direction
speed
KPH
gust
KPH
rain 1hr
cm
rain 24hr
cm
rain mn
cm
humidity
%
barometer
mb
20260510225001 8 267 12.9 16.1 0.00 0.00 0.00 68 1025.7
20260510224502 8 260 9.7 9.7 0.00 0.00 0.00 64 1025.5
20260510224001 8 294 14.5 16.1 0.00 0.00 0.00 61 1025.9
20260510223502 8 301 11.3 14.5 0.00 0.00 0.00 64 1025.6
20260510222001 8 256 11.3 14.5 0.00 0.00 0.00 65 1025.1
20260510221002 9 273 14.5 16.1 0.00 0.00 0.00 61 1025.4
20260510220002 8 290 16.1 19.3 0.00 0.00 0.00 61 1025.0
20260510215501 8 296 12.9 16.1 0.00 0.00 0.00 60 1024.9
20260510214002 8 256 14.5 16.1 0.00 0.00 0.00 70 1025.0
20260510213502 8 272 14.5 17.7 0.00 0.00 0.00 68 1025.0
20260510213002 8 255 20.9 22.5 0.00 0.00 0.00 70 1024.9
20260510212502 8 272 22.5 24.1 0.00 0.00 0.00 66 1025.1
20260510211502 8 262 20.9 22.5 0.00 0.00 0.00 66 1025.1
20260510211001 8 284 19.3 22.5 0.00 0.00 0.00 65 1024.9
20260510210002 7 308 14.5 19.3 0.00 0.00 0.00 66 1024.8
20260510205502 7 328 20.9 24.1 0.00 0.00 0.00 67 1024.8
20260510205001 7 282 16.1 19.3 0.00 0.00 0.00 66 1024.7
20260510204502 7 313 8.0 9.7 0.00 0.00 0.00 66 1024.7
20260510204001 7 261 19.3 22.5 0.00 0.00 0.00 66 1024.9
20260510203502 8 1 11.3 16.1 0.00 0.00 0.00 63 1024.9
20260510203002 8 339 6.4 9.7 0.00 0.00 0.00 63 1024.8
20260510202002 8 298 11.3 14.5 0.00 0.00 0.00 62 1024.8
20260510201501 7 274 19.3 22.5 0.00 0.00 0.00 62 1024.6
20260510201002 7 262 11.3 14.5 0.00 0.00 0.00 66 1024.9
20260510200502 7 255 14.5 16.1 0.00 0.00 0.00 65 1024.6
20260510200001 7 283 11.3 16.1 0.00 0.00 0.00 64 1024.6
20260510195502 7 259 17.7 17.7 0.00 0.00 0.00 66 1024.8
20260510195001 7 274 17.7 20.9 0.00 0.00 0.00 66 1024.9
20260510192002 7 273 22.5 24.1 0.00 0.00 0.00 71 1024.7
20260510190501 7 284 16.1 17.7 0.00 0.00 0.00 69 1024.4
20260510190002 7 270 22.5 25.7 0.00 0.00 0.00 67 1024.4
20260510185502 7 276 16.1 20.9 0.00 0.00 0.00 67 1024.3
20260510182002 6 273 8.0 9.7 0.00 0.00 0.00 72 1024.0
20260510181501 6 306 12.9 16.1 0.00 0.00 0.00 70 1024.0
20260510181002 6 259 16.1 19.3 0.00 0.00 0.00 71 1024.0
20260510180501 7 303 14.5 19.3 0.00 0.00 0.00 71 1024.2
20260510175501 6 3 6.4 8.0 0.00 0.00 0.00 73 1023.9
20260510173502 7 309 11.3 16.1 0.00 0.00 0.00 71 1023.8
20260510172001 7 265 16.1 19.3 0.00 0.00 0.00 70 1023.3
20260510171502 6 271 20.9 22.5 0.00 0.00 0.00 68 1023.5
20260510171001 7 279 25.7 29.0 0.00 0.00 0.00 71 1023.7
20260510170001 7 283 20.9 29.0 0.00 0.00 0.00 68 1023.5
20260510165502 6 254 17.7 17.7 0.00 0.00 0.00 70 1023.6
20260510165002 6 285 17.7 20.9 0.00 0.00 0.00 70 1023.7
20260510164002 6 232 12.9 16.1 0.00 0.00 0.00 72 1023.5
20260510163501 7 330 12.9 16.1 0.00 0.00 0.00 69 1023.3
20260510163002 7 282 17.7 20.9 0.00 0.00 0.00 70 1023.2
20260510162501 7 317 16.1 19.3 0.00 0.00 0.00 70 1023.1
20260510161501 7 266 9.7 11.3 0.00 0.00 0.00 67 1023.2
20260510161002 7 298 22.5 25.7 0.00 0.00 0.00 69 1022.7
20260510160502 7 312 16.1 19.3 0.00 0.00 0.00 67 1023.0
20260510160001 7 265 27.4 33.8 0.00 0.00 0.00 70 1022.8
20260510153002 7 281 11.3 17.7 0.00 0.00 0.00 68 1022.7
20260510151501 7 291 17.7 20.9 0.00 0.00 0.00 68 1022.7
20260510151002 7 282 16.1 19.3 0.00 0.00 0.00 68 1022.5
20260510150002 7 309 16.1 17.7 0.00 0.00 0.00 69 1022.5
20260510145501 7 258 20.9 22.5 0.00 0.00 0.00 69 1022.5
20260510145002 7 268 17.7 19.3 0.00 0.00 0.00 66 1022.6
20260510144501 6 277 22.5 24.1 0.00 0.00 0.00 64 1022.5
20260510144002 6 278 22.5 24.1 0.00 0.00 0.00 65 1022.5
20260510143501 6 274 17.7 17.7 0.00 0.00 0.00 64 1022.6
20260510142502 6 267 16.1 17.7 0.00 0.00 0.00 64 1022.6
20260510142002 7 284 17.7 19.3 0.00 0.00 0.00 64 1022.5
20260510141002 6 270 16.1 20.9 0.00 0.00 0.00 65 1022.4
20260510140502 6 289 9.7 14.5 0.00 0.00 0.00 68 1022.3
20260510140002 6 289 11.3 14.5 0.00 0.00 0.00 69 1022.6
20260510135501 6 268 19.3 22.5 0.00 0.00 0.00 73 1022.6
20260510135002 6 267 17.7 20.9 0.00 0.00 0.00 72 1022.4
20260510134502 6 267 16.1 17.7 0.00 0.00 0.00 75 1022.5
20260510133502 5 291 14.5 16.1 0.00 0.00 0.00 75 1022.6
20260510133001 6 296 14.5 17.7 0.00 0.00 0.00 75 1022.6
20260510132502 5 261 17.7 19.3 0.00 0.00 0.00 78 1022.4
20260510132001 5 269 14.5 16.1 0.00 0.00 0.00 78 1022.4
20260510131502 5 252 14.5 17.7 0.00 0.00 0.00 79 1022.4
20260510131002 5 283 14.5 16.1 0.00 0.00 0.00 78 1022.6
20260510130002 5 258 16.1 17.7 0.00 0.00 0.00 83 1022.4
20260510125501 5 280 12.9 14.5 0.00 0.00 0.00 81 1022.3
20260510124002 5 286 11.3 14.5 0.00 0.00 0.00 79 1022.5
20260510123001 5 335 4.8 8.0 0.00 0.00 0.00 81 1022.5
20260510122001 4 290 9.7 11.3 0.00 0.00 0.00 82 1022.5
20260510120502 4 263 9.7 11.3 0.00 0.00 0.00 84 1022.4
20260510120001 4 285 8.0 9.7 0.00 0.00 0.00 85 1022.1
20260510115001 3 229 3.2 4.8 0.00 0.00 0.00 86 1022.3
20260510112002 3 264 6.4 8.0 0.00 0.00 0.00 87 1022.0
20260510111502 3 290 8.0 11.3 0.00 0.00 0.00 87 1021.8
20260510110502 3 242 3.2 4.8 0.00 0.00 0.00 87 1021.8
20260510110001 3 276 11.3 14.5 0.00 0.00 0.00 89 1021.7
20260510105502 3 237 8.0 9.7 0.00 0.00 0.00 88 1021.6
20260510105001 4 248 11.3 14.5 0.00 0.00 0.00 88 1021.5
20260510104002 3 282 12.9 14.5 0.00 0.00 0.00 89 1021.4
20260510103003 3 269 8.0 9.7 0.00 0.00 0.00 90 1021.2
20260510102002 3 301 4.8 6.4 0.00 0.00 0.00 90 1020.8
20260510101502 3 308 6.4 6.4 0.00 0.00 0.00 89 1020.7
20260510101001 3 295 3.2 4.8 0.00 0.00 0.00 89 1020.8
20260510095502 3 293 4.8 6.4 0.00 0.00 0.00 89 1020.7
20260510094501 3 285 1.6 3.2 0.00 0.00 0.00 88 1020.5
20260510094002 3 252 6.4 8.0 0.00 0.00 0.00 88 1020.7
20260510093501 3 286 3.2 3.2 0.00 0.00 0.00 87 1020.5
20260510093002 3 309 3.2 4.8 0.00 0.00 0.00 88 1020.3
20260510092501 3 286 4.8 6.4 0.00 0.00 0.00 87 1020.1
20260510092002 3 308 4.8 6.4 0.00 0.00 0.00 87 1020.4
20260510091502 3 273 6.4 9.7 0.00 0.00 0.00 87 1020.1
20260510091001 3 303 6.4 8.0 0.00 0.00 0.00 87 1020.2
20260510090502 3 337 8.0 9.7 0.00 0.00 0.00 87 1020.0
20260510085502 3 303 6.4 8.0 0.00 0.00 0.00 87 1019.9
20260510085002 3 272 9.7 9.7 0.00 0.00 0.00 87 1020.1
20260510084501 3 273 6.4 8.0 0.00 0.00 0.00 87 1020.0
20260510084002 3 323 9.7 11.3 0.00 0.00 0.00 88 1020.0
20260510083501 3 295 12.9 14.5 0.00 0.00 0.00 86 1020.0
20260510081502 3 273 6.4 6.4 0.00 0.00 0.00 84 1019.9
20260510081002 3 302 9.7 11.3 0.00 0.00 0.00 85 1019.7
20260510075502 3 256 4.8 6.4 0.00 0.00 0.00 83 1019.3
20260510075001 3 300 8.0 9.7 0.00 0.00 0.00 83 1019.1
20260510074502 3 282 9.7 11.3 0.00 0.00 0.00 83 1019.1
20260510074001 4 273 9.7 11.3 0.00 0.00 0.00 84 1019.1
20260510072502 4 267 8.0 9.7 0.00 0.00 0.00 83 1018.9
20260510072002 3 292 6.4 8.0 0.00 0.00 0.00 83 1019.0
20260510071501 4 7 3.2 4.8 0.00 0.00 0.00 82 1018.8
20260510071002 4 306 3.2 4.8 0.00 0.00 0.00 83 1018.6
20260510065001 3 291 6.4 6.4 0.00 0.00 0.00 81 1018.4
20260510063502 3 277 3.2 4.8 0.00 0.00 0.00 80 1018.5
20260510063002 3 2 3.2 4.8 0.00 0.00 0.00 80 1018.5
20260510062002 2 151 0.0 0.0 0.00 0.00 0.00 82 1018.4
20260510061002 2 117 0.0 0.0 0.00 0.00 0.00 78 1018.2
20260510060501 3 159 1.6 3.2 0.00 0.00 0.00 78 1017.9
20260510054502 3 210 0.0 0.0 0.00 0.00 0.00 74 1017.7
20260510053502 4 228 0.0 0.0 0.00 0.00 0.00 73 1017.8
20260510052002 4 320 3.2 3.2 0.00 0.00 0.00 72 1017.5
20260510051501 5 2 3.2 4.8 0.00 0.00 0.00 70 1017.5
20260510050501 5 314 3.2 6.4 0.00 0.00 0.00 68 1017.6
20260510050002 5 3 3.2 4.8 0.00 0.00 0.00 69 1017.4
20260510045501 5 334 3.2 4.8 0.00 0.00 0.00 68 1017.5
20260510044502 5 328 4.8 6.4 0.00 0.00 0.00 70 1017.2
20260510044001 5 295 1.6 3.2 0.00 0.00 0.00 68 1017.4
20260510043001 5 285 3.2 4.8 0.00 0.00 0.00 68 1017.3
20260510041002 5 312 8.0 9.7 0.00 0.00 0.00 68 1016.8
20260510040502 5 0 4.8 4.8 0.00 0.00 0.00 66 1016.8
20260510040002 5 289 4.8 8.0 0.00 0.00 0.00 67 1016.6
20260510035501 6 353 9.7 11.3 0.00 0.00 0.00 65 1016.4
20260510034501 6 20 4.8 6.4 0.00 0.00 0.00 64 1016.5
20260510034002 6 292 4.8 4.8 0.00 0.00 0.00 64 1016.4
20260510033501 6 273 4.8 4.8 0.00 0.00 0.00 64 1016.4
20260510032502 6 333 11.3 16.1 0.00 0.00 0.00 62 1016.4
20260510032001 6 1 3.2 4.8 0.00 0.00 0.00 63 1016.3
20260510031501 6 16 6.4 8.0 0.00 0.00 0.00 63 1016.5
20260510030501 6 308 6.4 11.3 0.00 0.00 0.00 64 1016.3
20260510030002 6 320 9.7 11.3 0.00 0.00 0.00 64 1016.3
20260510025002 6 287 16.1 17.7 0.00 0.00 0.00 66 1016.2
20260510024501 6 346 6.4 8.0 0.00 0.00 0.00 66 1016.0
20260510024003 6 315 6.4 8.0 0.00 0.00 0.00 68 1016.0
20260510023502 6 325 3.2 4.8 0.00 0.00 0.00 70 1016.0
20260510023001 6 238 1.6 3.2 0.00 0.00 0.00 69 1016.1
20260510022502 6 293 3.2 3.2 0.00 0.00 0.00 69 1016.1
20260510022001 6 283 1.6 3.2 0.00 0.00 0.00 68 1016.2
20260510021502 6 270 6.4 8.0 0.00 0.00 0.00 69 1015.9
20260510015501 6 228 1.6 3.2 0.00 0.00 0.00 69 1015.4
20260510015002 6 236 1.6 3.2 0.00 0.00 0.00 68 1015.3
20260510014501 6 220 1.6 3.2 0.00 0.00 0.00 70 1015.4
20260510012501 7 295 3.2 3.2 0.00 0.00 0.00 67 1014.9
20260510011502 7 326 4.8 6.4 0.00 0.00 0.00 67 1014.6
20260510011001 7 305 3.2 4.8 0.00 0.00 0.00 67 1014.3
20260510010502 7 331 8.0 9.7 0.00 0.00 0.00 66 1014.6
20260510005502 7 344 3.2 4.8 0.00 0.00 0.00 66 1014.4
20260510004502 7 351 4.8 6.4 0.00 0.00 0.00 64 1014.1
20260510004002 7 290 9.7 14.5 0.00 0.00 0.00 64 1013.9
20260510003502 8 338 8.0 11.3 0.00 0.00 0.00 63 1013.9
20260510003003 8 337 8.0 9.7 0.00 0.00 0.00 64 1013.8
20260510002501 8 339 6.4 9.7 0.00 0.00 0.00 63 1013.7
20260510000501 8 339 3.2 4.8 0.00 0.00 0.00 67 1013.1
20260509235501 8 29 12.9 17.7 0.00 0.00 0.00 66 1012.8
20260509235002 8 351 9.7 11.3 0.00 0.00 0.00 66 1012.7
20260509234001 9 359 14.5 16.1 0.00 0.00 0.00 64 1012.4
20260509233502 9 9 6.4 9.7 0.00 0.00 0.00 64 1012.1
20260509231001 10 5 14.5 17.7 0.00 0.00 0.00 58 1011.6